Theta_e
347 351 355 355 353 354 354 352 351 352 351 349 347 346 347 347 345 342 342 342 340 340 342 344 346 347 347 346 344 342 346 347 346 343 342 341 342 345 344 343 341 336 345
349 351 355 354 353 352 351 351 350 350 350 349 348 347 347 347 346 344 341 342 344 346 349 350 347 345 345 346 345 342 340 343 344 343 339 338 340 339 339 341 341 340 341
348 351 351 354 353 352 351 351 351 350 350 349 349 348 348 347 347 347 345 341 342 345 346 349 347 344 343 343 342 341 340 339 340 341 342 344 344 342 345 339 336 339 340
349 350 350 352 352 352 352 352 351 351 350 350 350 350 350 350 350 350 349 347 346 344 344 346 348 347 345 344 343 341 340 340 340 339 336 335 338 341 343 346 343 339 339
349 350 350 350 348 347 345 343 342 341 340 340 342 342 343 342 342 342 343 344 346 348 348 348 347 346 348 348 347 346 344 342 341 339 336 335 337 338 341 342 345 346 340
343 342 340 341 339 338 338 337 338 338 337 337 337 337 337 337 337 336 337 337 339 341 344 348 349 349 348 348 348 348 348 346 344 343 338 338 337 339 340 341 346 346 341
333 337 337 337 336 336 335 335 334 333 333 333 332 332 332 332 332 331 331 332 333 334 335 338 341 345 347 347 347 347 348 346 345 343 343 341 338 339 342 342 345 347 345
326 329 329 331 331 331 331 331 331 330 329 329 328 327 327 327 327 328 328 328 329 330 331 332 333 336 337 340 345 347 346 343 342 343 343 343 345 340 341 342 343 346 346
320 320 320 320 322 326 327 327 327 326 326 326 325 324 323 323 324 325 325 326 327 327 327 327 329 330 331 331 333 338 343 342 344 342 342 343 344 343 344 344 342 343 346
317 317 317 318 318 319 320 322 323 322 322 322 321 320 320 321 321 321 323 324 325 325 325 325 326 326 326 325 326 329 333 337 344 343 343 344 343 344 346 346 345 345 343
315 316 317 317 318 318 318 317 319 319 319 320 320 319 324 321 322 322 320 321 323 324 324 325 324 323 322 324 323 325 327 333 339 341 342 342 342 345 346 345 345 346 346
313 314 316 318 318 318 316 318 319 319 320 320 321 321 321 321 320 319 320 318 319 321 321 323 323 322 323 321 321 323 323 326 329 334 338 339 340 342 344 344 344 344 344
314 314 316 317 317 317 318 319 319 320 321 321 321 320 320 320 320 320 320 320 320 320 320 321 322 322 323 322 322 321 321 323 325 329 335 335 337 340 341 341 341 341 342
314 314 315 316 317 317 318 318 319 319 320 320 319 319 318 318 318 318 317 318 318 318 318 319 319 320 321 322 322 321 321 321 322 324 329 332 334 338 338 338 338 339 340
312 313 315 316 316 316 317 319 319 319 319 319 318 317 317 317 316 316 316 316 316 317 316 316 317 317 318 320 321 320 321 321 321 322 325 326 327 329 331 332 334 335 337
312 313 314 315 316 316 317 318 318 319 318 318 317 316 316 315 314 314 314 314 314 315 315 315 315 315 316 318 317 317 320 322 322 322 324 326 326 329 331 332 333 333 334
312 313 314 314 315 315 316 317 318 318 317 316 316 315 314 314 313 313 312 311 311 312 311 312 313 314 314 315 314 315 317 319 320 321 323 325 327 322 324 327 328 329 331
312 312 314 313 314 314 315 317 317 317 317 316 315 315 313 312 312 311 310 309 310 310 310 310 310 311 312 312 313 314 317 319 320 321 322 323 324 319 318 318 320 323 326
312 312 314 314 313 313 314 316 316 316 317 316 316 315 313 311 310 309 309 309 309 310 309 309 309 309 309 310 311 317 319 318 317 318 319 320 319 318 317 314 313 313 316
312 313 313 313 313 313 315 316 316 316 316 317 316 315 313 312 309 308 308 308 309 308 308 308 308 309 309 308 311 316 317 317 316 314 314 314 311 308 307 307 308 309 309
311 311 312 312 313 313 313 312 312 312 314 315 315 313 312 312 309 308 307 307 307 307 307 307 307 307 307 309 309 313 315 312 311 311 311 311 311 310 307 307 307 307 309
310 311 311 311 312 312 313 313 314 314 314 314 315 313 312 311 310 307 306 305 305 305 304 305 305 305 306 308 306 307 306 309 311 312 313 311 311 311 308 306 305 304 305
310 311 311 311 312 312 312 313 312 313 312 311 311 311 311 309 309 308 306 305 305 305 303 303 304 304 303 306 307 304 301 301 302 310 309 309 309 308 308 305 302 301 301
311 312 311 311 311 312 312 311 309 308 307 310 310 311 310 309 308 307 306 305 305 304 303 302 302 303 304 302 305 305 305 305 301 299 307 308 307 305 305 303 301 299 298
310 311 311 311 311 311 312 311 310 309 309 310 309 309 309 309 307 307 306 305 304 303 303 301 301 301 303 302 302 302 301 303 304 302 298 301 303 306 305 301 301 299 296
309 310 311 310 310 311 311 310 310 309 309 309 309 308 309 308 308 306 305 305 304 302 301 301 300 300 301 302 302 301 299 298 299 299 297 298 297 300 303 301 299 297 295
Wind_Speed
7 9 8 9 9 8 9 10 9 9 8 8 7 6 6 6 5 5 4 4 3 3 4 4 5 5 5 5 6 6 5 6 5 5 5 4 4 5 5 4 5 4 5
11 9 7 10 10 9 9 8 8 7 7 6 6 6 5 5 4 4 3 3 3 4 5 5 2 3 3 3 4 4 4 4 3 3 2 3 2 2 2 2 4 6 3
10 9 10 8 10 9 8 8 7 7 6 6 5 4 4 3 2 2 2 2 3 4 4 5 1 1 1 1 2 3 2 2 2 3 5 8 4 1 4 2 3 4 4
9 8 10 9 8 9 9 9 10 10 11 10 10 10 8 8 9 8 5 3 3 5 6 7 7 3 3 4 4 4 3 3 3 4 8 6 6 2 5 8 5 5 5
10 11 13 14 13 13 12 12 11 11 10 11 11 11 10 10 11 10 10 9 8 7 7 8 8 7 6 7 7 7 6 5 5 7 6 6 6 3 5 8 9 9 6
11 12 14 14 14 13 12 11 12 11 12 11 11 11 10 11 11 11 11 11 10 10 10 9 8 9 9 8 9 9 9 7 6 8 6 5 7 5 8 9 11 8 7
10 11 13 14 13 13 13 12 11 11 12 12 11 11 11 11 11 11 11 12 12 12 12 12 12 12 10 8 10 10 10 8 10 9 7 7 7 6 10 11 11 9 11
10 8 10 13 13 13 12 12 12 11 11 11 11 11 12 11 11 12 12 13 12 13 13 12 12 12 12 12 12 11 9 8 10 11 9 7 4 8 11 11 12 11 9
8 7 7 8 9 13 13 12 12 12 12 12 12 12 11 12 12 12 11 13 13 12 12 12 11 12 12 12 12 11 10 9 11 9 9 7 6 8 12 12 12 12 12
7 7 7 7 7 7 7 11 12 12 12 11 12 11 9 5 8 10 11 12 12 12 12 12 12 12 12 12 11 11 11 11 12 11 8 8 1 10 14 14 13 13 13
7 6 6 6 6 6 7 6 7 9 7 6 6 6 2 6 7 7 9 11 11 12 11 12 11 11 11 11 6 8 11 8 8 7 7 1 5 12 16 15 15 15 15
7 6 6 6 6 5 4 6 6 5 6 6 6 7 5 6 6 6 3 6 6 10 7 10 9 8 7 6 6 7 6 8 8 8 6 9 9 12 13 13 12 13 15
7 5 5 5 5 5 5 3 3 3 4 4 7 7 6 5 5 5 4 5 6 6 6 7 7 6 8 7 6 7 7 8 6 5 5 8 11 12 12 10 9 10 11
7 6 5 5 5 5 3 3 4 4 3 4 5 7 5 4 4 5 5 6 6 6 8 7 5 7 8 8 8 8 8 7 6 5 4 6 10 11 10 9 9 9 9
7 6 5 5 5 4 5 4 4 3 4 4 4 6 5 5 5 5 5 5 5 6 7 7 7 7 7 7 8 8 7 7 7 5 5 8 10 9 8 8 8 9 9
7 6 5 5 5 5 5 5 3 3 3 3 4 5 6 5 5 5 5 5 6 6 7 7 7 7 7 6 7 7 7 6 6 5 4 2 13 11 10 9 9 8 8
6 6 5 5 4 5 5 3 2 2 2 3 3 5 6 6 6 6 5 6 6 6 8 7 7 7 7 7 8 6 6 6 5 5 4 4 6 13 16 15 14 13 12
7 7 6 4 5 4 4 2 1 2 2 2 3 3 5 6 6 5 5 5 6 6 6 7 7 7 6 7 7 6 5 4 4 5 4 5 6 4 10 16 19 20 20
8 7 6 5 5 4 3 2 2 2 0 2 1 2 4 5 5 5 4 5 6 5 6 6 6 7 6 7 6 5 5 5 6 5 7 8 9 8 5 8 12 18 20
7 7 6 5 4 4 2 1 1 2 1 1 1 2 2 3 5 5 4 5 5 4 5 6 8 7 6 8 5 3 4 4 6 8 8 8 8 8 7 8 6 5 12
8 8 7 6 6 4 3 3 2 2 2 2 1 1 2 2 4 4 3 4 5 5 6 7 7 7 6 8 5 2 2 5 5 4 4 4 4 5 7 6 6 6 6
9 9 8 7 6 4 3 1 1 1 1 2 2 2 3 3 3 3 4 4 5 4 6 7 8 7 5 7 6 4 3 5 3 2 3 4 6 4 5 7 8 8 7
11 10 9 7 6 5 4 3 3 2 2 3 3 3 3 4 3 3 4 4 3 4 4 5 6 7 5 5 6 4 3 3 7 3 2 4 6 5 4 5 7 8 9
11 8 8 7 6 5 5 4 4 3 4 2 3 3 4 5 5 4 4 4 3 3 3 4 4 5 5 6 4 3 4 5 3 4 3 2 2 4 4 3 5 6 8
9 9 8 7 6 5 5 5 3 5 4 4 4 6 6 5 6 6 6 5 4 3 3 3 4 4 3 5 4 5 6 5 6 6 7 4 5 0 2 3 4 5 7
7 9 7 7 6 6 6 5 6 7 7 6 6 6 5 5 5 7 7 6 5 4 4 3 3 4 4 5 5 5 5 4 4 4 6 6 7 4 3 2 3 4 5
Wind_Direction
149 134 153 135 109 98 97 95 91 89 87 87 85 80 72 64 63 65 64 60 57 34 26 30 36 40 42 44 42 38 38 45 54 71 70 55 44 72 61 51 313 52 29
135 140 145 121 112 105 100 97 94 90 85 79 69 64 59 54 51 53 46 40 24 10 1 316 72 43 35 29 28 21 20 17 22 28 4 205 127 37 46 31 336 31 2
131 130 144 122 116 111 104 97 90 82 72 64 55 47 35 27 20 28 36 15 350 343 344 349 65 49 356 342 341 334 333 337 325 313 300 271 280 23 321 317 306 302 308
129 126 116 114 111 103 94 81 72 67 60 55 51 44 33 27 28 21 8 350 342 335 326 319 328 305 285 287 288 287 285 280 279 287 260 282 281 130 310 308 284 279 276
116 92 87 88 86 83 79 76 71 65 60 52 49 45 43 40 40 35 30 23 15 356 320 304 304 303 288 276 274 279 277 268 252 259 276 280 280 260 289 295 288 252 248
96 97 86 86 84 81 76 76 68 64 62 57 55 53 48 47 40 35 31 24 18 10 354 347 327 294 282 276 274 269 264 253 249 261 273 263 261 298 285 281 297 269 244
95 103 88 82 80 78 74 72 68 64 59 55 53 49 44 40 32 25 20 13 7 4 3 359 355 349 336 311 280 274 272 265 263 272 264 264 266 270 275 280 285 300 241
104 95 93 78 75 72 68 66 64 59 55 49 46 42 36 31 25 20 15 9 2 355 353 353 353 352 351 341 325 308 284 271 262 262 260 263 261 263 269 274 275 280 284
92 93 91 87 89 77 64 60 59 56 53 50 46 43 40 36 30 25 21 12 3 359 351 344 342 340 341 338 337 332 322 281 271 270 267 266 188 252 273 275 277 277 277
87 80 81 81 79 72 79 60 60 57 55 54 50 43 33 50 30 31 15 20 8 4 360 352 345 337 332 326 329 334 324 291 257 262 258 259 273 271 277 272 273 268 268
92 79 71 75 74 77 69 72 88 70 67 60 70 46 48 31 23 21 37 17 13 7 5 357 349 337 322 277 290 316 296 274 282 273 274 16 301 291 289 287 281 280 270
115 93 80 75 72 72 72 64 64 64 48 44 40 32 26 26 26 349 24 7 359 354 354 352 350 322 295 325 301 267 289 294 282 280 282 15 314 292 292 297 290 288 282
117 103 86 86 71 71 71 58 60 53 48 54 38 24 23 14 7 8 357 359 349 353 353 346 345 353 345 338 326 312 303 298 293 283 275 311 310 310 307 314 312 312 294
131 115 113 100 91 74 74 60 59 57 52 40 38 19 16 7 9 2 0 354 351 350 346 345 339 338 335 336 333 327 318 299 295 304 304 315 325 321 324 325 321 318 319
141 139 127 118 101 83 73 72 71 69 54 44 33 26 15 13 7 359 3 0 357 346 347 340 336 332 330 333 330 328 320 318 307 300 302 61 10 354 346 337 332 331 332
148 151 143 125 100 89 81 81 70 63 58 44 41 31 29 12 8 5 2 5 359 351 342 335 334 330 325 324 322 322 320 322 325 318 318 47 42 28 24 19 13 6 355
165 154 157 136 120 106 103 84 72 69 55 52 49 46 30 21 9 7 7 6 1 352 343 338 340 333 331 334 321 321 323 325 330 341 342 349 109 44 38 33 26 21 17
168 176 162 142 140 127 104 100 86 72 58 57 51 43 31 27 16 17 13 14 359 355 349 345 346 340 338 337 330 338 339 339 11 40 51 44 55 51 41 35 30 27 23
186 173 161 161 160 137 136 127 73 87 52 63 46 39 31 22 20 12 14 13 356 358 355 346 348 346 343 347 336 355 25 57 63 57 58 62 51 33 41 59 39 33 23
188 181 169 175 164 156 151 172 197 201 211 222 8 26 357 17 15 5 2 8 355 355 359 349 345 351 353 352 336 1 46 61 57 42 41 56 54 53 44 32 22 28 37
191 185 189 184 172 189 194 210 200 223 213 213 240 269 292 343 358 5 354 350 352 0 357 349 344 345 1 359 332 330 156 81 82 83 72 59 70 65 45 36 28 13 12
194 198 192 192 181 191 207 179 260 271 250 293 263 257 284 302 319 336 332 349 356 348 356 351 356 347 353 12 349 296 296 188 167 58 52 32 27 31 37 33 31 24 14
204 198 197 190 189 192 192 189 211 227 241 246 230 246 241 265 267 291 305 324 342 339 354 347 355 358 343 348 358 346 316 339 335 140 28 18 6 12 28 22 28 26 16
209 196 192 186 191 195 194 218 243 288 288 286 278 271 254 243 250 248 262 274 297 318 329 335 344 343 333 336 333 358 291 299 307 305 188 197 358 352 14 24 23 27 18
202 192 187 187 193 198 203 232 245 259 267 278 267 262 250 244 237 237 241 249 253 264 286 303 318 328 319 311 323 326 320 303 268 282 307 332 334 165 352 8 17 17 17
184 180 179 186 200 205 215 227 244 263 274 271 266 265 260 247 237 231 228 238 240 243 244 259 269 272 286 286 290 293 300 308 326 305 303 315 312 314 330 45 6 16 14